Weather History for Defiance, OH

Change the Weather History Date:

Tuesday, April 30, 2013

  Actual Average Record
Temperature  
Mean Temperature 65 °F -  
Max Temperature 77 °F 65 °F 88 °F (1942)
Min Temperature 53 °F 41 °F 27 °F (2008)
Growing Degree Days 15 (Base 50)    
Moisture  
Dew Point 53 °F    
Average Humidity 67    
Maximum Humidity 89    
Minimum Humidity 45    
Precipitation  
Precipitation 0.00 in - - ()
Sea Level Pressure  
Sea Level Pressure 30.00 in    
Wind  
Wind Speed 7 mph (SSE)    
Max Wind Speed 14 mph    
Max Gust Speed 22 mph    
Visibility 9 miles    
Events      
Averages and records for this station are not official NWS values.
T = Trace of Precipitation, MM = Missing Value Source: NWS Daily Summary

Daily Weather History Graph

Daily Weather History Graph

Search for Another Location

Airport:

Trip Planner

Search our weather history database for the weather conditions in past years. The results will help you decide how hot, cold, wet, or windy it might be!

Date:

Astronomy

Apr. 30, 2013 Rise Set
Actual Time 6:36 AM EDT 8:34 PM EDT
Civil Twilight 6:06 AM EDT 9:04 PM EDT
Nautical Twilight 5:29 AM EDT 9:41 PM EDT
Astronomical Twilight 4:49 AM EDT 10:21 PM EDT
Moon 12:57 AM EDT (4/30) 11:03 AM EDT (4/30)
Length of Visible Light 14h 58m
Length of Day
13h 58m
Waning Gibbous, 70% of the Moon is Illuminated
Apr 30
Waning Gibbous
May 2
Last Quarter
May 9
New
May 18
First Quarter
May 25
Full

Hourly Weather History & Observations

Time (EDT) Temp. Dew Point Humidity Pressure Visibility Wind Dir Wind Speed Gust Speed Precip Events Conditions
12:53 AM 57.9 °F 51.1 °F 78% 29.96 in 10.0 mi South 4.6 mph - N/A   Clear
1:53 AM 55.0 °F 50.0 °F 83% 29.97 in 10.0 mi South 3.5 mph - N/A   Clear
2:53 AM 55.9 °F 51.1 °F 84% 29.97 in 10.0 mi SSE 4.6 mph - N/A   Clear
3:53 AM 55.9 °F 51.1 °F 84% 29.97 in 9.0 mi South 5.8 mph - N/A   Mostly Cloudy
4:53 AM 55.0 °F 51.1 °F 86% 29.98 in 7.0 mi South 6.9 mph - N/A   Mostly Cloudy
5:53 AM 54.0 °F 50.0 °F 86% 29.97 in 6.0 mi South 6.9 mph - N/A   Clear
6:53 AM 53.1 °F 50.0 °F 89% 29.97 in 4.0 mi SSE 6.9 mph - N/A   Clear
7:53 AM 55.0 °F 51.1 °F 86% 30.01 in 4.0 mi South 6.9 mph - N/A   Clear
8:53 AM 57.9 °F 52.0 °F 81% 30.02 in 7.0 mi South 8.1 mph - N/A   Clear
9:53 AM 63.0 °F 53.1 °F 70% 30.03 in 10.0 mi South 13.8 mph - N/A   Clear
10:53 AM 64.9 °F 54.0 °F 68% 30.02 in 10.0 mi South 13.8 mph 21.9 mph N/A   Clear
11:53 AM 68.0 °F 55.0 °F 63% 30.03 in 10.0 mi SSE 10.4 mph 17.3 mph N/A   Clear
12:53 PM 70.0 °F 54.0 °F 57% 30.04 in 10.0 mi SE 8.1 mph - N/A   Mostly Cloudy
1:53 PM 72.0 °F 55.0 °F 55% 30.01 in 10.0 mi South 11.5 mph 17.3 mph N/A   Partly Cloudy
2:53 PM 73.9 °F 55.9 °F 53% 30.00 in 10.0 mi South 11.5 mph 19.6 mph N/A   Clear
3:53 PM 75.0 °F 55.0 °F 50% 29.99 in 10.0 mi SSE 11.5 mph - N/A   Clear
4:53 PM 75.9 °F 55.0 °F 48% 29.98 in 10.0 mi SSE 11.5 mph - N/A   Clear
5:53 PM 77.0 °F 54.0 °F 45% 29.98 in 10.0 mi SE 10.4 mph - N/A   Clear
6:53 PM 75.9 °F 53.1 °F 45% 29.99 in 10.0 mi South 10.4 mph - N/A   Clear
7:53 PM 75.0 °F 53.1 °F 46% 30.01 in 10.0 mi South 8.1 mph - N/A   Clear
8:53 PM 72.0 °F 53.1 °F 51% 30.02 in 10.0 mi South 5.8 mph - N/A   Clear
9:53 PM 68.0 °F 54.0 °F 61% 30.04 in 10.0 mi SSE 3.5 mph - N/A   Clear
10:53 PM 66.9 °F 54.0 °F 63% 30.05 in 10.0 mi SE 3.5 mph - N/A   Clear
11:53 PM 64.9 °F 53.1 °F 65% 30.05 in 10.0 mi SSE 3.5 mph - N/A   Clear